Home   Weather   Alsdorf   Past weeks

Flag for Germany Past Weather in Alsdorf, North Rhine-Westphalia, Germany — Yesterday and Last 2 Weeks

Now
59 °F

Sunny.


Feels Like: 56 °F
Forecast: 38 / 47 °F
Wind: 14 mph from Southwest

Location: Geilenkirchen Airport

Current Time: Apr 24, 2017 at 3:34:02 pm

Latest Report: Apr 24, 2017 at 2:50 pm


Visibility: 10 mi

Pressure: 29.95 "Hg

Humidity: 45%

Dew Point: 37 °F

Location of AlsdorfLocation

Past Weather in Alsdorf — Graph

°F

Alsdorf Temperature Yesterday

Maximum temperature yesterday: 48 °F (at 7:50 pm)
Minimum temperature yesterday: 37 °F (at 11:50 pm)
Average temperature yesterday: 43 °F

High & Low Weather Summary for the Past Weeks

 TemperatureHumidityPressure
High68 °F (Apr 9, 7:50 pm)93% (Apr 11, 5:50 am)30.66 "Hg (Apr 11, 5:50 am)
Low27 °F (Apr 20, 3:50 am)33% (Apr 20, 4:50 pm)29.95 "Hg (Apr 12, 5:50 pm)
Average46 °F66%30.29 "Hg
* Reported Apr 9 7:50 pm — Apr 24 1:50 pm, Alsdorf, Weather by CustomWeather, © 2017

Note: Actual official high and low records may vary slightly from our data, if they occured in-between our weather recording intervals... More about our weather records

Advertising

Alsdorf Weather History for the Previous 24 Hours

Scroll right to see more
 ConditionsComfort  
Time TempWeatherWind HumidityBarometerVisibility
1:50 pm
Mon, Apr 24
57 °FSunny.14 mph44%29.98 "Hg10 mi
12:50 pm55 °FSunny.14 mph47%30.01 "Hg10 mi
11:50 am54 °FSunny.13 mph47%30.04 "Hg10 mi
10:50 am52 °FSunny.10 mph50%30.07 "Hg10 mi
9:50 am50 °FSunny.10 mph50%30.07 "Hg10 mi
8:50 am46 °FSunny.10 mph57%30.09 "Hg10 mi
7:50 am43 °FSunny.5 mph66%30.09 "Hg10 mi
6:50 am36 °FSunny.5 mph87%30.09 "Hg10 mi
5:50 am32 °FClear.5 mph93%30.12 "Hg10 mi
4:50 am34 °FClear.7 mph87%30.15 "Hg10 mi
3:50 am34 °FClear.3 mph87%30.15 "Hg10 mi
2:50 am34 °FClear.6 mph93%30.18 "Hg10 mi
1:50 am34 °FClear.5 mph93%30.21 "Hg10 mi
12:50 am36 °FClear.5 mph87%30.21 "Hg10 mi
11:50 pm
Sun, Apr 23
37 °FClear.1 mph81%30.24 "Hg10 mi
10:50 pm39 °FClear.2 mph81%30.24 "Hg10 mi
9:50 pm45 °FClear.No wind66%30.27 "Hg10 mi
8:50 pm46 °FClear.2 mph62%30.27 "Hg10 mi
7:50 pm48 °FPartly sunny.5 mph62%30.27 "HgN/A
Weather by CustomWeather, © 2017

See weather overviewHow to use our weather pages